This is the latest recevied weather packets stored in our database for station/object KQ4NAL. If no packets are shown the sender has not sent any weather packets the latest 10 day(s).
| Time | Temp. | Humidity | Pressure | Rain* | Wind** | Luminosity | Snow |
|---|---|---|---|---|---|---|---|
| 1777815207 | 8.89° C | 64% | 1021.4 hPa | 0 mm | - | 390 W/m² | - |
| 1777814904 | 9.44° C | 65% | 1021.2 hPa | 0 mm | - | 390 W/m² | - |
| 1777814600 | 8.89° C | 66% | 1021.3 hPa | 0 mm | - | 376 W/m² | - |
| 1777814298 | 8.89° C | 67% | 1021.1 hPa | 0 mm | - | 336 W/m² | - |
| 1777813994 | 8.89° C | 68% | 1021.3 hPa | 0 mm | - | 333 W/m² | - |
| 1777813692 | 8.33° C | 70% | 1021.4 hPa | 0 mm | - | 326 W/m² | - |
| 1777813389 | 7.22° C | 71% | 1021.3 hPa | 0 mm | - | 307 W/m² | - |
| 1777813086 | 6.67° C | 74% | 1021.4 hPa | 0 mm | - | 280 W/m² | - |
| 1777812784 | 6.11° C | 76% | 1021.3 hPa | 0 mm | - | 254 W/m² | - |
| 1777812480 | 5.56° C | 80% | 1021.3 hPa | 0 mm | - | 246 W/m² | - |
| 1777812178 | 5° C | 85% | 1021.3 hPa | 0 mm | - | 220 W/m² | - |
| 1777811876 | 4.44° C | 89% | 1021.2 hPa | 0 mm | - | 204 W/m² | - |
| 1777811574 | 3.89° C | 93% | 1021.4 hPa | 0 mm | - | 189 W/m² | - |
| 1777811269 | 3.33° C | 96% | 1021.3 hPa | 0 mm | - | 182 W/m² | - |
| 1777810967 | 2.78° C | 97% | 1021.3 hPa | 0 mm | - | 163 W/m² | - |
| 1777810664 | 2.22° C | 98% | 1021.3 hPa | 0 mm | - | 130 W/m² | - |
| 1777810361 | 1.67° C | 98% | 1021.2 hPa | 0 mm | - | 124 W/m² | - |
| 1777810056 | 1.67° C | 99% | 1021.1 hPa | 0 mm | - | 110 W/m² | - |
| 1777809754 | 1.11° C | 99% | 1021.3 hPa | 0 mm | - | 85 W/m² | - |
| 1777809451 | 0.56° C | 99% | 1021.1 hPa | 0 mm | - | 65 W/m² | - |
| 1777809149 | 0.56° C | 99% | 1020.9 hPa | 0 mm | - | 62 W/m² | - |
| 1777808847 | 0° C | 99% | 1021.1 hPa | 0 mm | - | 72 W/m² | - |
| 1777808543 | 0° C | 99% | 1021.1 hPa | 0 mm | - | 67 W/m² | - |
| 1777808240 | 0° C | 99% | 1020.8 hPa | 0 mm | - | 50 W/m² | - |
| 1777807939 | -1.11° C | 99% | 1021 hPa | 0 mm | - | 38 W/m² | - |
* Rain latest hour (hover to see other rain measurements)
** Current wind speed in m/s (hover to see current wind gust speed)